SCP
0 0 0 0 0 0 1 1 1 1 1 1 1 0 0 0 0 0 0 0 0 0 0 0 0 0 0 0 0 0 0 0 0 0 0 0 0 0 0 0 0 0 0
0 0 0 0 0 0 1 1 1 1 1 1 1 1 0 0 0 0 0 0 0 0 0 0 0 0 0 0 0 0 0 0 0 0 0 0 0 0 0 0 0 0 0
0 0 0 0 0 0 1 1 1 1 1 1 1 1 0 0 0 0 0 0 0 0 0 0 0 0 0 0 0 0 0 0 0 0 0 0 0 0 0 0 0 0 0
1 1 1 0 0 0 1 1 1 1 1 1 1 1 0 0 0 0 0 0 0 0 0 0 0 0 0 0 0 0 0 0 0 0 0 0 0 0 0 0 0 0 0
1 1 1 1 1 1 1 1 1 1 1 1 1 1 0 0 0 0 0 0 0 0 0 0 0 0 0 0 0 0 0 0 0 0 0 0 0 0 0 0 0 0 0
1 1 1 1 1 1 1 1 1 1 1 1 1 1 0 0 0 0 0 0 0 0 0 0 0 0 0 0 0 0 0 0 0 0 0 0 0 0 0 0 0 0 0
1 1 1 1 1 1 1 1 1 1 1 1 1 1 0 0 0 0 0 0 0 0 0 0 0 0 0 0 0 0 0 0 0 0 0 0 0 0 0 0 0 0 0
1 1 1 1 1 1 1 1 1 1 1 1 1 1 0 0 0 0 0 0 0 0 0 0 0 0 0 0 0 0 0 0 0 0 0 0 0 0 0 0 0 0 0
1 1 1 1 1 1 1 1 1 1 1 1 1 0 0 0 0 0 0 0 0 0 0 0 0 0 0 0 0 0 0 0 0 0 0 0 0 0 0 0 0 0 0
1 1 1 1 1 1 1 1 1 1 1 1 1 0 0 0 0 0 0 0 0 0 0 0 0 0 0 0 0 0 0 0 0 0 0 0 0 0 0 0 0 0 0
1 1 1 1 1 1 1 1 1 1 1 1 1 1 0 0 0 0 0 0 0 0 0 0 0 0 0 0 0 0 0 0 0 0 0 0 0 0 0 0 0 0 0
1 1 1 1 1 1 1 1 1 1 1 1 1 1 0 0 0 0 0 0 0 0 0 0 0 0 0 0 0 0 0 0 0 0 0 0 0 0 0 0 0 0 0
1 1 1 1 1 1 1 1 1 1 1 1 1 1 0 0 0 0 0 0 0 0 0 0 0 0 0 0 0 0 0 0 0 0 0 0 0 0 0 0 0 1 1
1 1 1 1 1 1 1 1 1 1 1 1 1 1 0 0 0 0 0 0 0 0 0 0 0 0 0 0 0 0 0 0 0 0 0 0 0 0 0 0 1 1 1
1 1 1 1 1 1 1 1 1 1 1 1 1 1 0 0 0 0 0 0 0 0 0 0 0 0 0 0 0 0 0 0 0 0 0 0 0 0 0 0 1 1 1
1 1 1 1 1 1 1 1 1 1 1 1 1 1 0 0 0 0 0 0 0 0 0 0 0 0 0 0 0 0 0 0 0 0 0 0 0 0 0 1 1 1 1
1 1 1 1 1 1 1 1 1 1 1 1 1 1 1 0 0 0 0 0 0 0 0 0 0 0 0 0 0 0 0 0 0 0 0 0 0 0 0 0 1 1 1
1 1 1 1 1 1 1 1 1 1 1 1 1 1 1 0 0 0 0 0 0 0 0 0 0 0 0 0 0 0 0 0 0 0 0 0 0 0 0 0 0 0 0
1 1 1 1 1 1 1 1 1 1 1 1 1 1 0 0 0 0 0 0 0 0 0 0 0 0 0 0 0 0 0 0 0 0 0 0 0 0 0 0 0 0 0
1 1 1 1 1 1 1 1 1 1 1 0 0 0 0 0 0 0 0 0 0 0 0 0 0 0 0 0 0 0 0 0 0 0 0 0 0 0 0 0 0 0 0
1 1 1 1 1 1 1 1 1 1 0 0 0 0 0 0 0 0 0 0 0 0 0 0 0 0 0 0 0 0 0 0 0 0 0 0 0 0 0 0 0 0 0
1 1 1 1 1 1 1 1 1 0 0 0 0 0 0 0 0 0 0 0 0 0 0 0 0 0 0 0 0 0 0 0 0 0 0 0 0 0 0 0 0 0 0
1 1 1 1 1 1 1 1 0 0 0 0 0 0 0 0 0 0 0 0 0 0 0 0 0 0 0 0 0 0 0 0 0 0 0 0 0 0 0 0 0 0 0
1 1 1 0 0 0 0 0 0 0 0 0 0 0 0 0 0 0 0 0 0 0 0 0 0 0 0 0 0 0 0 0 0 0 0 0 0 0 0 0 0 0 0
0 0 0 0 0 0 0 0 0 0 0 0 0 0 0 0 0 0 0 0 0 0 0 0 0 0 0 0 0 0 0 0 0 0 0 0 0 0 0 0 0 0 0
0 0 0 0 0 0 0 0 0 0 0 0 0 0 0 0 0 0 0 0 0 0 0 0 0 0 0 0 0 0 0 0 0 0 0 0 0 0 0 0 0 0 0
Wind_Speed
7 11 17 17 16 15 16 17 18 19 19 19 19 18 18 17 17 16 15 14 14 13 13 13 13 13 14 14 15 15 16 16 16 16 16 15 15 15 15 15 14 12 15
12 13 18 17 17 16 16 18 18 19 18 19 19 18 17 17 16 15 14 14 14 13 13 13 13 13 14 14 14 15 15 15 14 14 15 14 15 15 15 15 13 10 15
14 14 16 17 17 17 17 17 18 18 18 18 18 18 17 16 15 15 14 14 13 13 13 13 13 13 13 14 14 14 14 13 13 12 12 8 10 14 14 14 14 14 14
15 13 14 18 17 17 17 17 17 18 19 18 17 17 17 16 15 15 14 14 13 13 13 13 13 13 13 13 13 12 12 11 11 11 6 6 7 13 14 14 14 13 13
13 11 14 20 18 18 18 17 17 18 18 18 17 17 16 15 14 14 14 13 13 12 12 13 13 12 12 12 11 10 10 10 9 8 5 5 5 12 13 13 13 13 12
12 11 13 19 18 17 17 17 16 17 17 16 16 15 15 14 13 13 13 13 12 12 12 12 11 11 11 10 10 9 8 8 7 5 5 5 6 11 13 13 13 12 12
10 9 11 17 17 17 17 17 16 16 15 15 14 14 13 12 11 11 11 11 11 11 10 10 10 9 9 8 8 6 6 7 5 4 5 5 6 10 12 12 12 12 11
11 9 10 16 18 17 17 16 15 14 13 13 13 12 12 11 10 10 10 10 10 9 9 9 8 8 7 6 6 4 3 4 4 4 5 5 7 9 11 11 11 11 11
10 9 8 10 13 15 15 14 13 13 13 12 12 12 11 11 10 10 9 9 8 8 8 7 7 6 5 4 4 3 2 2 3 2 4 4 7 9 10 10 10 10 10
8 9 8 7 8 8 9 14 14 13 13 13 13 12 12 11 10 10 8 8 8 7 6 6 5 4 3 2 1 1 1 2 2 2 2 4 8 10 10 10 10 10 10
9 7 8 8 7 7 7 10 12 13 12 12 10 12 10 4 4 5 6 7 7 6 5 4 3 2 1 0 1 0 1 1 1 2 2 5 8 10 10 10 10 10 10
12 11 8 8 8 8 7 6 5 5 6 5 4 5 4 3 3 4 4 7 7 6 5 4 3 2 0 0 1 1 0 1 2 2 3 7 9 10 10 10 10 10 10
10 10 9 8 8 8 5 5 4 3 4 4 5 5 4 3 2 2 1 2 2 3 1 1 0 0 0 0 1 1 1 1 1 2 3 6 8 9 10 9 9 10 10
10 10 9 9 8 7 5 5 5 4 4 4 4 5 4 3 3 2 1 1 1 1 1 1 0 1 1 1 1 2 2 2 2 1 2 5 6 8 9 9 9 9 9
9 9 9 8 8 7 6 5 6 5 5 5 4 5 5 4 3 3 2 1 1 1 1 1 1 1 1 1 1 2 2 2 2 2 1 4 5 5 7 8 7 8 8
6 7 8 9 8 6 5 5 5 4 4 4 4 5 6 4 3 3 2 2 2 1 1 1 1 1 1 1 1 2 2 2 1 1 1 2 3 3 5 6 5 6 7
5 5 6 7 6 6 5 4 4 3 4 4 3 4 4 4 4 3 2 2 2 2 2 1 1 0 0 1 2 2 2 2 2 2 2 1 2 2 1 1 2 2 3
5 5 6 6 6 5 4 3 2 3 3 3 2 2 3 4 4 3 2 2 1 2 2 2 1 1 1 2 2 2 3 3 3 3 3 3 3 2 3 4 3 2 1
4 5 5 4 6 5 5 3 3 3 3 2 2 2 2 3 4 3 2 2 2 2 2 1 1 1 1 2 2 3 3 4 4 4 5 5 5 4 3 5 6 5 4
3 3 3 3 4 4 4 3 3 4 3 3 3 3 4 3 4 3 2 2 2 2 2 2 2 2 2 2 3 4 4 4 4 5 5 5 5 6 6 5 5 6 8
4 4 3 3 3 3 3 4 4 3 3 3 3 5 4 4 4 4 2 2 2 2 2 2 2 3 2 1 2 3 3 5 6 5 5 5 6 6 6 6 5 4 4
6 5 3 3 2 2 2 2 3 3 3 3 4 6 6 5 4 4 4 3 3 2 3 3 2 2 2 2 1 2 1 1 3 5 5 5 6 5 6 7 6 6 5
6 5 3 4 3 2 3 4 4 4 3 3 5 5 6 6 7 6 6 5 4 4 3 3 2 2 2 2 2 1 2 3 2 2 5 5 5 5 5 5 7 7 6
6 5 5 4 3 3 3 5 6 4 4 4 4 5 7 7 7 7 7 7 6 5 5 4 4 3 3 2 2 3 2 2 3 2 2 4 5 6 6 5 6 6 6
7 6 5 4 5 4 3 4 6 6 6 6 7 9 8 7 8 8 8 7 7 6 7 7 6 6 4 3 2 2 3 3 3 3 2 2 3 4 5 5 5 5 5
7 7 6 6 6 6 6 6 7 9 9 9 8 8 7 6 7 9 9 8 8 7 8 8 8 9 7 7 6 5 3 3 2 2 2 1 2 2 3 4 4 4 4
Wind_Direction
151 149 153 151 149 142 133 124 120 118 119 121 122 124 126 127 128 130 131 129 127 125 121 117 114 112 110 110 111 113 115 116 119 121 123 123 121 121 120 118 117 116 118
144 148 152 152 151 145 137 130 125 122 121 122 123 124 126 127 128 130 130 129 128 126 123 120 118 117 116 116 116 118 120 121 124 127 128 127 127 127 126 125 124 125 124
140 146 152 153 152 147 139 133 129 127 126 125 125 126 127 128 129 130 130 130 129 128 126 124 123 122 120 120 121 122 123 124 126 125 121 122 131 133 133 132 132 130 129
140 145 152 155 153 148 141 136 134 132 131 130 130 130 130 131 131 132 132 132 131 130 129 128 126 125 124 124 123 124 125 124 123 121 116 128 136 139 138 136 136 135 134
138 144 155 156 154 149 144 141 138 137 136 135 134 134 133 133 133 134 135 134 134 133 132 131 129 128 127 126 126 127 127 125 124 123 128 131 133 143 143 142 142 141 140
139 145 157 157 155 151 148 145 143 141 140 139 137 136 136 135 135 137 138 137 137 136 135 132 131 130 130 129 128 129 132 132 124 129 139 143 146 152 151 151 150 148 148
138 145 156 157 156 155 154 151 148 145 143 141 140 139 139 138 139 140 142 142 140 139 137 134 133 131 129 126 124 122 127 131 129 142 150 156 164 164 161 160 158 157 157
141 145 155 159 159 160 159 157 152 148 145 144 144 144 143 143 144 146 146 146 144 142 140 139 137 133 128 122 115 108 116 132 134 159 165 168 178 175 170 167 166 165 165
138 146 152 159 162 163 161 159 154 151 150 150 149 150 150 151 153 154 153 151 150 149 148 148 146 143 134 123 112 96 86 103 116 159 175 175 186 185 179 175 174 174 174
137 150 153 154 153 155 159 163 161 159 159 159 158 159 160 160 161 162 159 160 161 162 162 162 160 157 148 131 112 102 100 98 125 168 175 185 190 193 188 185 184 184 184
149 158 161 157 153 153 156 169 166 167 168 166 166 167 163 156 157 164 170 174 175 178 181 182 184 187 187 301 321 270 106 129 177 193 195 206 202 203 200 196 193 192 192
165 169 170 167 161 158 166 161 157 161 163 162 162 164 150 143 159 166 182 191 191 193 199 205 215 224 215 17 325 328 60 219 217 222 225 224 217 212 208 203 200 200 200
165 170 176 174 167 164 161 156 156 153 154 159 164 158 147 144 156 160 152 203 209 206 189 212 266 47 50 270 298 288 252 243 234 234 237 231 223 216 212 210 206 206 206
167 175 175 176 174 172 162 161 161 161 164 168 169 160 156 161 172 171 169 176 173 166 163 154 177 287 279 276 269 268 266 252 248 237 242 238 231 227 222 219 214 213 209
173 173 174 177 180 176 167 169 172 173 174 172 169 171 169 172 184 181 178 174 189 181 181 195 221 260 280 302 292 283 281 272 269 258 265 257 243 230 227 225 218 212 208
172 175 173 180 181 177 177 175 174 175 171 165 173 180 176 176 179 182 180 175 187 184 188 193 197 213 297 346 356 349 339 335 334 331 313 299 277 248 230 226 223 216 213
177 174 174 179 170 171 177 176 171 168 161 168 174 176 178 173 172 171 172 173 189 174 170 149 115 70 10 35 20 9 10 4 4 11 11 1 348 343 286 216 198 197 206
166 170 173 177 157 160 156 156 158 151 151 153 153 157 170 165 160 158 160 171 165 141 137 130 113 91 47 48 37 28 28 26 26 32 36 31 24 19 26 46 60 79 129
148 153 152 148 153 159 149 138 129 118 120 118 111 111 126 136 143 139 147 145 126 113 107 119 89 102 89 74 71 49 38 35 31 38 42 40 37 36 35 45 53 59 67
104 117 130 130 137 146 140 128 113 103 103 100 97 94 101 112 117 120 119 103 103 103 93 93 99 79 79 88 87 67 52 46 41 40 40 41 41 41 41 41 43 48 50
74 79 89 99 122 139 149 157 152 138 124 103 87 83 88 98 107 107 110 98 94 100 106 114 116 101 72 60 107 90 67 57 53 41 39 44 44 43 48 44 42 44 41
62 62 72 94 119 138 143 148 136 125 113 103 86 71 63 70 77 92 94 89 79 87 81 75 102 128 84 37 116 142 138 77 51 40 41 46 42 41 45 44 43 43 40
41 44 51 69 81 94 101 102 110 106 101 91 82 71 60 68 75 79 84 85 77 75 73 59 63 117 124 66 41 130 162 178 114 43 39 44 44 47 44 42 44 42 41
32 35 43 60 72 78 103 124 128 124 111 97 93 81 63 59 68 75 80 80 77 73 69 59 51 60 103 115 64 43 58 104 140 130 44 35 45 44 40 38 37 37 34
29 35 35 46 58 66 85 106 114 113 107 100 92 84 72 59 56 63 69 74 74 73 71 66 63 62 64 77 77 64 60 53 59 119 119 37 36 31 33 34 36 33 28
30 36 42 53 52 58 72 82 97 109 113 108 97 91 79 69 60 59 67 69 69 70 69 68 67 67 67 70 66 58 60 63 55 81 109 90 53 15 18 26 31 23 17